Date,TemperatureHighF,TemperatureAvgF,TemperatureLowF,DewpointHighF,DewpointAvgF,DewpointLowF,HumidityHigh,HumidityAvg,HumidityLow,PressureMaxIn,PressureMinIn,WindSpeedMaxMPH,WindSpeedAvgMPH,GustSpeedMaxMPH,PrecipitationSumIn
2013-2-1,72.0,49.5,35.9,51.9,43.5,34.4,96,82,43,29.72,29.60,11,0,11,0.00
2013-2-2,62.2,45.0,39.9,52.0,42.7,38.6,96,92,66,29.76,29.69,7,0,10,0.01
2013-2-3,57.4,47.0,39.8,48.9,43.4,38.5,96,88,70,29.74,29.61,9,0,9,0.01
2013-2-4,64.3,47.5,34.2,51.9,42.5,32.9,97,84,61,29.66,29.54,9,0,9,0.01
2013-2-5,58.1,47.0,39.6,48.1,43.0,38.0,95,87,66,29.62,29.55,11,0,13,0.00
2013-2-6,59.1,46.2,33.5,49.1,40.9,32.2,96,83,65,29.68,29.60,4,0,13,0.01
2013-2-7,55.4,44.8,33.2,46.8,39.2,31.7,95,82,56,29.68,29.50,12,0,12,0.03
2013-2-8,53.5,42.2,33.9,42.7,37.9,32.1,96,86,57,29.50,29.43,11,0,14,0.05
2013-2-9,56.5,42.1,28.1,44.0,35.6,26.5,95,80,54,29.60,29.48,9,0,9,0.01
2013-2-10,60.9,44.1,28.9,44.2,35.2,27.4,95,75,38,29.61,29.50,14,1,14,0.00
2013-2-11,63.6,46.4,31.0,43.3,33.0,26.0,95,67,25,29.74,29.55,12,1,12,0.01
2013-2-12,62.3,45.7,33.5,43.1,37.3,31.2,95,75,43,29.84,29.74,11,0,11,0.00
2013-2-13,63.4,47.1,32.4,48.5,39.4,30.9,95,77,48,29.82,29.70,9,0,11,0.00
2013-2-14,74.0,51.8,35.0,46.5,40.1,33.5,95,69,35,29.72,29.62,14,0,15,0.00
2013-2-15,78.6,54.9,37.5,49.0,40.6,35.5,94,66,23,29.74,29.67,8,0,8,0.00
2013-2-16,74.5,58.3,40.1,49.9,42.4,35.5,92,61,25,29.71,29.53,10,0,10,0.00
2013-2-17,59.5,46.7,35.8,48.8,42.1,34.2,98,85,67,29.55,29.45,10,0,10,0.00
2013-2-18,51.1,44.2,37.7,45.4,40.2,36.3,96,86,68,29.55,29.47,10,0,12,0.01
2013-2-19,46.5,41.4,35.2,45.0,39.1,33.4,95,91,75,29.48,29.25,13,0,16,0.32
2013-2-20,59.7,45.0,30.6,41.3,36.5,29.1,96,75,41,29.57,29.32,14,1,15,0.00
2013-2-21,59.2,48.5,36.3,41.4,37.0,33.0,93,67,39,29.67,29.53,17,1,17,0.00
2013-2-22,64.5,47.3,31.1,47.5,37.9,29.3,95,73,41,29.74,29.66,10,0,12,0.00
2013-2-23,60.2,49.2,37.5,43.0,39.9,34.3,93,72,40,29.74,29.63,14,1,15,0.00
2013-2-24,62.4,51.2,35.1,34.3,28.6,23.8,90,45,26,29.75,29.63,19,2,19,0.00
2013-2-25,63.9,46.9,31.2,46.7,37.7,28.6,95,73,46,29.76,29.64,14,1,14,0.00
2013-2-26,68.5,51.2,33.6,38.4,30.8,21.9,94,54,19,29.70,29.59,14,1,14,0.00
2013-2-27,70.2,51.5,32.3,42.9,35.5,29.4,92,60,24,29.85,29.69,12,0,12,0.00
2013-2-28,71.2,54.4,39.6,53.5,46.2,37.3,93,76,52,29.93,29.84,10,0,11,0.00